Location: Jastrzębia Góra
(54.8312°N, 18.3037°E)
Time: 03:04:20
(UTC+01:00)

ISS - Visible Passes

Search period start: 19 March 2019 00:00
Search period end: 29 March 2019 00:00
Orbit: 406 x 411 km, 51.6° (Epoch: 19 March)

Date Brightness Start Highest point End Pass type
(mag) Time Alt. Az. Time Alt. Az. Time Alt. Az.
22 Mar -1.6 19:39:55 10° S 19:40:42 13° S 19:40:42 13° S visible
23 Mar -1.5 18:50:25 10° SSE 18:51:08 11° SE 18:51:51 10° SE visible
23 Mar -1.7 20:23:59 10° SW 20:25:08 18° SSW 20:25:08 18° SSW visible
24 Mar -2.6 19:33:18 10° SSW 19:36:02 24° SSE 19:36:34 23° SE visible
24 Mar -1.0 21:08:59 10° WSW 21:09:20 12° WSW 21:09:20 12° WSW visible
25 Mar -3.0 20:18:01 10° WSW 20:20:37 37° SSW 20:20:37 37° SSW visible
26 Mar -3.0 19:27:08 10° SW 19:30:10 34° SSE 19:31:46 21° ESE visible
26 Mar -1.7 21:03:13 10° WSW 21:04:31 21° WSW 21:04:31 21° WSW visible
27 Mar -3.5 20:12:11 10° WSW 20:15:23 48° S 20:15:34 47° SSE visible
28 Mar -3.3 19:21:09 10° WSW 19:24:20 44° S 19:26:33 17° ESE visible
28 Mar -2.1 20:57:28 10° W 20:59:17 27° WSW 20:59:17 27° WSW visible
